Warning: Javascript must be enabled to use all the features on this page!


Page Loading - Please Wait...

Click to hideNews Bulletins

USGS 04189260 Blanchard River at Ottawa OH

PROVISIONAL DATA SUBJECT TO REVISION

Click to hidestation-specific text
Station operated in cooperation with the Village of Ottawa and the Groundwater and Streamflow Information Program
 04189260 Blanchard River at Ottawa, OH
 LOCATION.--Lat 41°01'01", long 84°02'49", Putnam County, OH, Hydrologic 
     Unit 04100008, on right bank at downstream side of Oak Street, 200 ft. upstream 
     of B&O railroad bridge, 800 ft. upstream of SR65 bridge, 1,200 ft. southeast of 
     intersection of SR65 and US RT224 in the village of Ottawa, OH.
 DRAINAGE AREA.--628 mi2.
 PERIOD OF RECORD.--October 2009 to current water year.
Want to learn more about areas near this gage that are inundated during flooding? See the USGS flood-inundation mapper.

Boating safety tips
Available Parameters Available Period
All 2 Available Parameters for this site
  
00060 Discharge 2009-10-01  2017-04-23
00065 Gage height 2016-12-24  2017-04-23

Graph
Graph w/ stats
Graph w/o stats
Graph w/ (up to 3) parms
Table
Tab-separated
Days  (7)
 

  -- or --
Begin date
 

End date
 

Summary of all available data for this site
Instantaneous-data availability statement
Gage height, feet
TIMEApr 16Apr 17Apr 18Apr 19Apr 20Apr 21Apr 22Apr 23
00:00 EDT7.05P  6.98P  6.74P  6.52P  6.35P  6.97P  7.82P  7.29P  
00:30 EDT7.04P  6.98P  6.74P  6.50P  6.34P  7.01P  7.82P  7.28P  
01:00 EDT7.03P  6.97P  6.73P  6.50P  6.34P  7.06P  7.82P  7.26P  
01:30 EDT7.03P  6.97P  6.73P  6.49P  6.34P  7.11P  7.82P  7.24P  
02:00 EDT7.03P  6.96P  6.72P  6.48P  6.34P  7.17P  7.83P  7.23P  
02:30 EDT7.02P  6.96P  6.72P  6.48P  6.34P  7.24P  7.82P  7.23P  
03:00 EDT7.02P  6.95P  6.72P  6.47P  6.34P  7.30P  7.83P  7.21P  
03:30 EDT7.02P  6.95P  6.71P  6.46P  6.34P  7.36P  7.82P  7.20P  
04:00 EDT7.01P  6.94P  6.71P  6.45P  6.34P  7.42P  7.82P  7.20P  
04:30 EDT7.01P  6.94P  6.71P  6.45P  6.34P  7.47P  7.82P  7.19P  
05:00 EDT7.01P  6.94P  6.70P  6.45P  6.33P  7.52P  7.82P  7.19P  
05:30 EDT7.01P  6.93P  6.70P  6.44P  6.34P  7.55P  7.81P  7.18P  
06:00 EDT7.01P  6.93P  6.70P  6.44P  6.33P  7.59P  7.81P  7.19P  
06:30 EDT7.00P  6.92P  6.69P  6.43P  6.33P  7.61P  7.81P  7.18P  
07:00 EDT7.00P  6.92P  6.68P  6.43P  6.33P  7.63P  7.80P  7.18P  
07:30 EDT7.00P  6.91P  6.68P  6.42P  6.33P  7.64P  7.79P  7.18P  
08:00 EDT7.00P  6.91P  6.67P  6.42P  6.33P  7.65P  7.79P  7.18P  
08:30 EDT7.00P  6.90P  6.67P  6.42P  6.32P  7.65P  7.78P  7.18P  
09:00 EDT7.00P  6.90P  6.66P  6.42P  6.32P  7.65P  7.77P  7.18P  
09:30 EDT6.99P  6.90P  6.66P  6.41P  6.32P  7.64P  7.76P  7.18P  
10:00 EDT6.99P  6.89P  6.65P  6.41P  6.32P  7.63P  7.75P  7.18P  
10:30 EDT7.00P  6.89P  6.65P  6.41P  6.32P  7.62P  7.74P  7.18P  
11:00 EDT7.00P  6.88P  6.64P  6.41P  6.31P  7.61P  7.73P  7.18P  
11:30 EDT7.00P  6.88P  6.64P  6.41P  6.32P  7.60P  7.71P  7.17P  
12:00 EDT7.00P  6.87P  6.64P  6.41P  6.31P  7.59P  7.70P  7.17P  
12:30 EDT7.00P  6.87P  6.63P  6.41P  6.31P  7.57P  7.69P  7.17P  
13:00 EDT7.02P  6.87P  6.63P  6.41P  6.31P  7.57P  7.67P  7.17P  
13:30 EDT7.02P  6.86P  6.62P  6.40P  6.31P  7.56P  7.66P  7.16P  
14:00 EDT7.03P  6.86P  6.62P  6.40P  6.31P  7.57P  7.65P  7.16P  
14:30 EDT7.03P  6.85P  6.62P  6.40P  6.31P  7.56P  7.64P  7.15P  
15:00 EDT7.04P  6.85P  6.62P  6.39P  6.31P  7.57P  7.62P  7.14P  
15:30 EDT7.04P  6.85P  6.61P  6.40P  6.32P  7.58P  7.60P  7.13P  
16:00 EDT7.04P  6.84P  6.61P  6.39P  6.32P  7.60P  7.60P  7.12P  
16:30 EDT7.03P  6.84P  6.61P  6.39P  6.32P  7.61P  7.58P  7.12P  
17:00 EDT7.03P  6.83P  6.60P  6.38P  6.33P  7.64P  7.55P  7.11P  
17:30 EDT7.03P  6.83P  6.59P  6.39P  6.44P  7.65P  7.53P  7.10P  
18:00 EDT7.03P  6.82P  6.59P  6.38P  6.61P  7.67P  7.51P  7.09P  
18:30 EDT7.03P  6.81P  6.59P  6.38P  6.67P  7.69P  7.49P  7.08P  
19:00 EDT7.03P  6.81P  6.58P  6.38P  6.71P  7.72P  7.48P  7.07P  
19:30 EDT7.02P  6.80P  6.58P  6.37P  6.73P  7.73P  7.46P  7.05P  
20:00 EDT7.02P  6.80P  6.57P  6.37P  6.75P  7.75P  7.43P  7.04P  
20:30 EDT7.01P  6.79P  6.56P  6.36P  6.76P  7.76P  7.41P  7.03P  
21:00 EDT7.01P  6.78P  6.56P  6.36P  6.77P  7.78P  7.40P  7.01P  
21:30 EDT7.00P  6.78P  6.55P  6.36P  6.80P  7.80P  7.38P  7.00P  
22:00 EDT7.00P  6.77P  6.55P  6.36P  6.83P  7.80P  7.36P   
22:30 EDT6.99P  6.76P  6.54P  6.35P  6.86P  7.80P  7.34P   
23:00 EDT6.99P  6.76P  6.53P  6.35P  6.90P  7.81P  7.32P   
23:30 EDT6.99P  6.75P  6.53P  6.35P  6.93P  7.82P  7.31P   
COUNT4848484848484844
MAX7.056.986.746.526.937.827.837.29
MIN6.996.756.536.356.316.977.317.00

Explanation
  P  Provisional data subject to revision.